Location: Newark
(52.3500°N, 175.9667°E)
Time: 15:28:25
(UTC+00:00)

S-56A Canister/Altair - All Passes

Search period start: 19 April 2021 00:00
Search period end: 29 April 2021 00:00
Orbit: 632 x 2500 km, 38.9° (Epoch: 18 April)

Date Brightness Start Highest point End Pass type
(mag) Time Alt. Az. Time Alt. Az. Time Alt. Az.
19 Apr - 12:20:37 10° SSW 12:24:50 18° S 12:28:21 10° SE night (unlit)
19 Apr - 14:23:59 10° SW 14:27:33 18° S 14:30:40 10° SSE visible
20 Apr - 11:47:40 10° SSW 11:52:17 18° S 11:56:03 10° SE night (unlit)
20 Apr - 13:51:01 10° SW 13:55:05 19° S 13:58:31 10° SE visible
21 Apr - 11:14:40 10° SSW 11:19:43 19° SSE 11:23:45 10° SE night (unlit)
21 Apr - 13:17:59 10° SW 13:22:37 21° S 13:26:21 10° SE night (unlit)
21 Apr - 15:23:20 10° SW 15:25:00 12° SSW 15:26:36 10° S visible
22 Apr - 10:41:38 10° SSW 10:47:06 19° SSE 10:51:25 10° ESE visible
22 Apr - 12:44:54 10° SW 12:50:05 23° S 12:54:11 10° SE night (unlit)
22 Apr - 14:49:55 10° SW 14:52:35 14° SSW 14:55:00 10° S visible
23 Apr - 10:08:35 10° SSW 10:14:26 19° SSE 10:19:04 10° ESE visible
23 Apr - 12:11:45 10° SW 12:17:33 24° S 12:22:00 10° SE visible
23 Apr - 14:16:39 10° WSW 14:20:09 16° SSW 14:23:10 10° SSE visible
24 Apr - 09:35:31 10° SSW 09:41:44 19° SSE 09:46:39 10° ESE visible
24 Apr - 11:38:32 10° SW 11:44:58 25° S 11:49:48 10° SE visible
24 Apr - 13:43:23 10° WSW 13:47:42 19° SSW 13:51:14 10° SSE night (unlit)
25 Apr - 09:02:27 10° SSW 09:08:59 19° SSE 09:14:10 10° ESE visible
25 Apr - 11:05:18 10° SW 11:12:21 27° S 11:17:33 10° ESE visible
25 Apr - 13:10:07 10° WSW 13:15:13 21° SSW 13:19:15 10° SSE visible
26 Apr - 08:29:25 10° SSW 08:36:12 19° SSE 08:41:39 10° ESE visible
26 Apr - 10:32:00 10° SW 10:39:41 28° S 10:45:17 10° ESE visible
26 Apr - 12:36:48 10° WSW 12:42:42 24° SSW 12:47:12 10° SE visible
27 Apr - 07:56:24 10° S 08:03:22 18° SSE 08:09:02 10° ESE daylight
27 Apr - 09:58:40 10° SW 10:06:57 29° S 10:12:59 10° ESE visible
27 Apr - 12:03:27 10° WSW 12:10:08 26° SSW 12:15:06 10° SE visible
27 Apr - 14:10:08 10° WSW 14:12:26 12° SW 14:14:32 10° SSW night (unlit)
28 Apr - 07:23:28 10° S 07:30:31 18° SSE 07:36:20 10° ESE daylight
28 Apr - 09:25:19 10° SW 09:34:11 29° S 09:40:38 10° ESE visible
28 Apr - 11:30:02 10° WSW 11:37:32 29° S 11:42:57 10° SE visible
28 Apr - 13:36:15 10° WSW 13:40:00 15° SSW 13:43:10 10° S visible
